CZ-3C DEB, 40823

Orbit data source: Space-Track

CZ-3C DEB, 40823 is space debris in HEO originally from a launch on Sun, 31 Oct 2010 UTC launched from the Xichang Space Center, China (XSC). Debris objects in space refer to the collection of defunct objects orbiting the Earth. Examples of debris include non-operational satellites, rocket bodies, and fragments generated from explosions, collisions, or faulty payload assembly.

Loading next visibility...
Identifier
40823, 2010-057AQ
Orbit
HEO
Country
Flag of CNCN / PRC
Related business
Manufacturer
CALT
Mission
Spacecraft
Bus & Motor
Unknown
Mass
Unknown
Launch date (UTC)
2010-10-31 (15 years ago)
Launch vehicle
Unknown
Launch site
Xichang Space Center, China (XSC)
Object type
Payload
Rocket body
Debris
Shape & HBR
Unknown shape, 0.2 m
Radar Cross Section
Small (<0.1 m²)

Expand to show TLE details & history
Last TLE update: 1 day ago

TLE from 1 day ago
0 CZ-3C DEB
1 40823U 10057AQ  25300.58015185  .00000003  00000-0  19005-2 0  9993
2 40823  20.2742 149.3386 7175355  54.5181 353.0169  2.23697919 87816
Epoch: 2025-10-27T13:55Z
TLE epoch observation values (Epoch: 2025-10-27T13:55:25.119Z)
Latitude
-0.00022°
Longitude
-95.64175°
Altitude
2,054.607 km
Speed
8.854 km/s
True Right ascension
09h 57m 34s
True Declination
0° 00' 01"
Sunlit
Object was in daylight at epoch
Visualization orbit readout
Latitude
Unknown
Longitude
Unknown
Altitude
Unknown
Speed
Unknown
Apparent Right ascension
Unknown
Apparent Declination
Unknown
Sunlit
N/A
Visualization observer readout
Local Sidereal Time
08:54:23
Azimuth
Unknown
Elevation
Unknown
Doppler factor
Unknown
Orbital elements
Apogee altitude
36,045.637 km
Perigee altitude
598.843 km
Semi-major axis
24,700.377 km
Eccentricity
0.71754
Inclination
20.2742°
RAAN
149.3386°
Arg. of periapsis
54.5181°
True anomaly
306.43338°
Mean anomaly
353.0169°
Eccentric anomaly
336.86246°
Mean motion
0.5591 °/min
Orbital period
643.89 mins
BSTAR
0.0019005
Loading maneuver chart data...
Computing Atmospheric mass density...
Loading historical data...
Loading historical data...
Loading historical data...
Loading historical data...
Loading historical data...
Loading historical data...
Loading historical data...

Documentation

Showing up to 5 results
|